Location: Borea
(45.6167°N, 23.0167°E)
Time: 00:51:39
(UTC+00:00)

OPS 8068 - Pass Details

Date: 25 February 2024
Orbit: 631 x 963 km, 98.3° (Epoch: 13 April)

Event Time Altitude Azimuth Distance (km) Brightness Sun altitude
Rises 03:28:55 0° 178° (S) 2,910 ? -19.2°
Reaches altitude 10° 03:31:07 10° 183° (S) 2,014 ? -18.8°
Maximum altitude 03:35:21 52° 260° (W) 815 ? -18.1°
Drops below altitude 10° 03:39:50 10° 337° (NNW) 2,125 ? -17.3°
Sets 03:42:12 0° 342° (NNW) 3,087 ? -16.9°
